{"data":{"norad_id":49743,"intl_designator":"2021-115V","name":"STARLINK-3239","alt_names":[],"object_type":"PAYLOAD","status":"ACTIVE","operator":null,"country":"US","launch_date":"2021-12-02","launch_site_code":"AFETR","launch_vehicle":null,"mission":null,"orbit_class":"UNKNOWN","rcs_meters":null,"size_class":null,"mass_kg":null,"dimensions":null,"purposes":["comms"],"wikipedia_slug":null,"has_3d_model":false,"image_url":null,"decayed_at":null,"tle_current":{"epoch":"2026-05-25T01:18:33.760224Z","epoch_age_seconds":64361,"freshness":"FRESH","line1":"1 49743U 21115V   26145.05455741  .00000497  00000+0  49326-4 0  9993","line2":"2 49743  53.2144 166.2386 0001118  76.9453 283.1664 15.08840763247066","mean_motion":15.08840763,"eccentricity":0.0001118,"inclination_deg":53.2144,"raan_deg":166.2386,"arg_perigee_deg":76.9453,"mean_anomaly_deg":283.1664,"bstar":4.9326e-5,"rev_number":24706,"period_min":95.437506416308,"perigee_km":538.96763801258,"apogee_km":540.51447554608,"semimajor_km":6917.8780567793,"source":"CELESTRAK","updated_at":"2026-05-25T13:38:16.835059Z"}}}